Погода Пировское

Погода Пировское : погода сейчас, прогноз погоды и архив. Всё, что Вы хотите узнать о погоде Пировское!

Поиск расширенной информации на нашем сайте:

Другие новости

Новости СМИ2

Главная страница сайта

Новости сайта

03.07.2017

Напоминаем, что на нашем специализированном сайте Метеоцентр.Азия вы можете получить высокодетализированные автоматические прогнозы погоды по пунктам России, СНГ и мира в авиационном формате (включающие направление и скорость ветра, видимость, явления погоды, количество и форму облачности, нижнюю и верхнюю границу облачности).


Погода Пировское - сегодня

Время (UTC), дата Ветер
(°,м/с) 
Видим.   Явления Облачность Т
(°С)
Тd
(°С)
f(%) Тe
(°С)
Pmin
(гПа)
dP
(гПа)
Po
(мм)
O2
(г/м3)
Тmin Tmax R s Состояние
почвы
09 26.07.17 210 (ЮЗ) н/о    н/о 
+23.2 +16.5 66 +35  1000.8  735  269           
12 26.07.17 210 (ЮЗ) н/о    н/о 
+21.7 +16.6 73 +34  1001.2  0.2  736  271    +24.1       
15 26.07.17 230 (ЮЗ) н/о    н/о 
+19.2 +17.9 92 +36  1002  0.6  736  273           
18 26.07.17 тихо ()   н/о    н/о 
+17 +16.8 99 +30  1002.2  736  275           
21 26.07.17 230 (ЮЗ) н/о    н/о 
+17.1 +16.9 99 +32  1002.7  0.5  736  275           
00 27.07.17 260 (З) н/о    н/о 
+18 +17.8 99 +33  1003.4  0.8  737  274  +16.2         
03 27.07.17 270 (З) н/о    н/о 
+21.3 +17.9 81 +36  1003.9  0.7  737  272           
06 27.07.17 300 (СЗ) н/о    н/о 
+23.2 +16.9 68 +36  1003.8  738  270           
09 27.07.17 300 (СЗ) н/о    н/о 
+25.1 +16.3 58 +37  1004  0.3  738  269           
12 27.07.17 270 (З) н/о    н/о 
+26.1 +16.7 56 +38  1004.2  0.2  738  268    +26.5       
15 27.07.17 тихо ()   н/о    н/о 
+19.7 +17.9 89 +34  1004.7  738  273           
18 27.07.17 250 (З) н/о    н/о 
+16 +15.7 98 +27  1005.4  0.4  738  278           
21 27.07.17 тихо ()   н/о    н/о 
+14.3 +14.1 99 +22  1005.3  -0.2  738  280           
00 28.07.17 тихо ()   н/о    н/о 
+17.3 +15.8 91 +28  1005.8  0.8  739  276  +13.3         
03 28.07.17 150 (ЮВ) н/о    н/о 
+25.8 +17 58 +39  1004.6  0.8  738  268           
06 28.07.17 120 (ЮВ) н/о    н/о 
+28.2 +15.2 45 +38  1003.9  -0.6  738  266           
09 28.07.17 150 (ЮВ) н/о    н/о 
+29.6 +15.5 42 +40  1002.6  -1.2  737  265           
12 28.07.17 130 (ЮВ) н/о    н/о 
+27 +18.4 59 +43  1002.2  -0.5  737  266    +29.8       
15 28.07.17 150 (ЮВ) н/о    н/о 
+24.2 +18.3 70 +40  1001.3  -1  736  268           
18 28.07.17 150 (ЮВ) н/о    н/о 
+22.5 +17 71 +35  1000.2  -1.2  735  270           
21 28.07.17 040 (СВ) н/о    н/о 
+19.9 +19.4 97 +39  999.5  -0.9  734  271           
00 29.07.17 тихо ()   н/о    н/о 
+19.2 +18.9 98 +36  998.5  -1.1  733  272  +19.2         
03 29.07.17 060 (СВ) н/о    н/о 
+20.2 +19.8 98 +39  996.9  -1.5  732  270  +19         
06 29.07.17 320 (СЗ) н/о    н/о 
+20.9 +19.9 94 +40  997.6  0.7  733  269           
09 29.07.17 260 (З) н/о    н/о 
+22.2 +18.5 80 +38  997.9  0.4  733  269           
Время (UTC), дата Ветер
(°,м/с) 
Видим.   Явления Облачность Т
(°С)
Тd
(°С)
f(%) Тe
(°С)
Pmin
(гПа)
dP
(гПа)
Po
(мм)
O2
(г/м3)
Тmin Tmax R s Состояние
почвы

Для получения пояснительной информации подведите курсор к названию столбца.

ПОГОДА Пировское - архив

Всё, что Вы хотите узнать о погоде Пировское - удобно и подробно!

Выберите нужную дату (начиная с 1 января 2015* года) и нажмите кнопку "Найти".
Будут отображены архивные сводки погоды по пункту Пировское, начиная с указанной даты.


Отображать данные в формате CSV (для использования в таблицах Excel)


Внимание! Наш архив погоды предназначен исключительно для личного некоммерческого использования в познавательных целях. Если Вам необходимы официальные справки о состоянии погоды (для производственных, юридических, коммерческих и т.п. целей), обращайтесь в органы Росгидромета.

*Примечание: данная дата относится к архиву по метеостанциям СССР (Россия, СНГ, Балтия).
Архив по метеостанциям Зарубежной Европы и Азии (кроме Китая) хранится 10 дней, по другим регионам земного шара (Китай, Африка, Америка, Австралия, Океания) - 1 день.

Пировское - район местоположения метеостанции


Название, широта, долгота, высота метеостанции:
Пировское 57.6°ш. 92.3°д. 179 м над ур. моря [Российская Федерация]

Дополнительная информация

В oтличие oт бoльшинства пoгoдных сайтoв мы публикуем пoдрoбную метеoинфoрмацию в детальнoм прoфессиoнальнoм фoрмате.

Характеристики температуры и влажнoсти вoздуха измеряются на высoте 2 м в тени вдали oт зданий и деревьев.
Скoрoсть ветра измеряется на высoте 10 м (на урoвне рoста челoвека скoрoсть ветра ниже в 1.5-2 раза). Если метеoстанция нахoдится в гoрoде или в лесу, тo скoрoсть ветра занижена на 2-4 м/с пo сравнению с oткрытым местoм. Скoрoсть ветра над акватoриями крупных рек и oзёр, а также на вершинах хoлмoв на 2-5 м/с выше, чем в oбычных услoвиях.
Атмoсфернoе давление в разных тoчках местнoсти мoжет значительнo oтличаться oт давления на метеoстанции, в зависимoсти oт услoвий рельефа (при пoдъёме на 10 м давление пoнижается примернo на 1 мм рт.ст.).